Time,TemperatureF,DewpointF,PressureIn,WindDirection,WindDirectionDegrees,WindSpeedMPH,WindSpeedGustMPH,Humidity,HourlyPrecipIn,Conditions,Clouds,dailyrainin,SoftwareType,DateUTC
2013-02-04 00:02:00,71.6,59.2,30.16,NNE,27,7.0,13.0,65,0.00,,---,0.00,VWS V14.00,2013-02-04 10:02:00,
2013-02-04 00:07:00,71.6,59.2,30.15,NE,55,6.0,10.0,65,0.00,,---,0.00,VWS V14.00,2013-02-04 10:07:00,
2013-02-04 00:12:00,71.6,59.7,30.15,NE,49,0.0,10.0,66,0.00,,---,0.00,VWS V14.00,2013-02-04 10:12:00,
2013-02-04 00:17:00,71.4,59.0,30.15,NE,51,6.0,10.0,65,0.00,,---,0.00,VWS V14.00,2013-02-04 10:17:00,
2013-02-04 00:22:00,71.4,59.0,30.15,NE,42,6.0,10.0,65,0.00,,---,0.00,VWS V14.00,2013-02-04 10:22:00,
2013-02-04 00:27:00,71.3,58.9,30.15,NE,44,6.0,14.0,65,0.00,,---,0.00,VWS V14.00,2013-02-04 10:27:00,
2013-02-04 00:32:00,71.3,58.9,30.16,NE,56,6.0,14.0,65,0.00,,---,0.00,VWS V14.00,2013-02-04 10:32:00,
2013-02-04 00:37:00,71.4,59.0,30.16,ENE,63,6.0,11.0,65,0.00,,---,0.00,VWS V14.00,2013-02-04 10:37:00,
2013-02-04 00:42:00,71.3,58.1,30.15,East,96,2.0,22.0,63,0.00,,---,0.00,VWS V14.00,2013-02-04 10:42:00,
2013-02-04 00:47:00,71.3,58.5,30.15,North,5,4.0,22.0,64,0.00,,---,0.00,VWS V14.00,2013-02-04 10:47:00,
2013-02-04 00:52:00,71.3,58.9,30.15,NNE,26,3.0,22.0,65,0.00,,---,0.00,VWS V14.00,2013-02-04 10:52:00,
2013-02-04 00:57:00,71.3,58.5,30.15,ENE,71,5.0,22.0,64,0.00,,---,0.00,VWS V14.00,2013-02-04 10:57:00,
2013-02-04 01:02:00,71.3,58.9,30.15,NE,53,2.0,22.0,65,0.00,,---,0.00,VWS V14.00,2013-02-04 11:02:00,
2013-02-04 01:07:00,71.4,59.5,30.15,NE,46,3.0,11.0,66,0.00,,---,0.00,VWS V14.00,2013-02-04 11:07:00,
2013-02-04 01:12:00,71.4,59.5,30.14,NE,36,3.0,11.0,66,0.00,,---,0.00,VWS V14.00,2013-02-04 11:12:00,
2013-02-04 01:17:00,71.5,60.0,30.14,NNE,24,1.0,11.0,67,0.00,,---,0.00,VWS V14.00,2013-02-04 11:17:00,
2013-02-04 01:22:00,71.4,59.9,30.14,ENE,76,0.0,11.0,67,0.00,,---,0.00,VWS V14.00,2013-02-04 11:22:00,
2013-02-04 01:27:00,71.4,59.0,30.14,ESE,119,4.0,11.0,65,0.00,,---,0.00,VWS V14.00,2013-02-04 11:27:00,
2013-02-04 01:32:00,71.3,58.1,30.14,NE,51,6.0,16.0,63,0.00,,---,0.00,VWS V14.00,2013-02-04 11:32:00,
2013-02-04 01:37:00,71.4,58.6,30.14,NE,36,6.0,12.0,64,0.00,,---,0.00,VWS V14.00,2013-02-04 11:37:00,
2013-02-04 01:42:00,71.4,58.6,30.14,ENE,60,13.0,13.0,64,0.00,,---,0.00,VWS V14.00,2013-02-04 11:42:00,
2013-02-04 01:47:00,71.4,59.0,30.14,ENE,66,3.0,13.0,65,0.00,,---,0.00,VWS V14.00,2013-02-04 11:47:00,
2013-02-04 01:52:00,71.3,58.5,30.13,ENE,67,5.0,13.0,64,0.00,,---,0.00,VWS V14.00,2013-02-04 11:52:00,
2013-02-04 01:57:00,71.3,58.9,30.13,NE,44,3.0,13.0,65,0.00,,---,0.00,VWS V14.00,2013-02-04 11:57:00,
2013-02-04 02:02:00,71.3,59.4,30.13,NE,38,4.0,14.0,66,0.00,,---,0.00,VWS V14.00,2013-02-04 12:02:00,
2013-02-04 02:07:00,71.3,59.4,30.13,ENE,60,10.0,13.0,66,0.00,,---,0.00,VWS V14.00,2013-02-04 12:07:00,
2013-02-04 02:12:00,71.3,59.4,30.13,North,360,10.0,13.0,66,0.00,,---,0.00,VWS V14.00,2013-02-04 12:12:00,
2013-02-04 02:17:00,71.3,59.4,30.13,NE,48,2.0,13.0,66,0.00,,---,0.00,VWS V14.00,2013-02-04 12:17:00,
2013-02-04 02:22:00,71.3,59.4,30.13,ENE,66,5.0,13.0,66,0.00,,---,0.00,VWS V14.00,2013-02-04 12:22:00,
2013-02-04 02:27:00,71.3,58.9,30.13,ENE,71,3.0,13.0,65,0.00,,---,0.00,VWS V14.00,2013-02-04 12:27:00,
2013-02-04 02:32:00,71.3,58.1,30.13,ENE,60,4.0,18.0,63,0.00,,---,0.00,VWS V14.00,2013-02-04 12:32:00,
2013-02-04 02:37:00,71.2,58.0,30.13,NE,42,7.0,14.0,63,0.00,,---,0.00,VWS V14.00,2013-02-04 12:37:00,
2013-02-04 02:42:00,71.2,58.4,30.13,ENE,75,7.0,14.0,64,0.00,,---,0.00,VWS V14.00,2013-02-04 12:42:00,
2013-02-04 02:47:00,71.2,58.4,30.12,NE,37,8.0,14.0,64,0.00,,---,0.00,VWS V14.00,2013-02-04 12:47:00,
2013-02-04 02:52:00,71.1,58.3,30.12,ENE,58,5.0,15.0,64,0.00,,---,0.00,VWS V14.00,2013-02-04 12:52:00,
2013-02-04 02:57:00,71.1,57.9,30.12,NE,38,12.0,15.0,63,0.00,,---,0.00,VWS V14.00,2013-02-04 12:57:00,
2013-02-04 03:02:00,71.1,57.4,30.12,NNE,22,11.0,15.0,62,0.00,,---,0.00,VWS V14.00,2013-02-04 13:02:00,
2013-02-04 03:07:00,71.1,57.9,30.12,NE,40,4.0,11.0,63,0.00,,---,0.00,VWS V14.00,2013-02-04 13:07:00,
2013-02-04 03:12:00,71.1,58.3,30.12,ENE,68,8.0,11.0,64,0.00,,---,0.00,VWS V14.00,2013-02-04 13:12:00,
2013-02-04 03:17:00,71.2,58.8,30.12,North,10,8.0,11.0,65,0.00,,---,0.00,VWS V14.00,2013-02-04 13:17:00,
2013-02-04 03:22:00,71.3,58.9,30.11,NE,38,5.0,11.0,65,0.00,,---,0.00,VWS V14.00,2013-02-04 13:22:00,
2013-02-04 03:27:00,71.4,59.0,30.11,NNW,347,2.0,13.0,65,0.00,,---,0.00,VWS V14.00,2013-02-04 13:27:00,
2013-02-04 03:32:00,71.6,60.5,30.11,NNW,344,4.0,13.0,68,0.00,,---,0.00,VWS V14.00,2013-02-04 13:32:00,
2013-02-04 03:37:00,71.7,61.4,30.11,ENE,69,4.0,11.0,70,0.00,,---,0.00,VWS V14.00,2013-02-04 13:37:00,
2013-02-04 03:42:00,71.6,60.5,30.11,ESE,109,5.0,13.0,68,0.00,,---,0.00,VWS V14.00,2013-02-04 13:42:00,
2013-02-04 03:47:00,71.6,60.9,30.11,ENE,66,10.0,13.0,69,0.00,,---,0.00,VWS V14.00,2013-02-04 13:47:00,
2013-02-04 03:52:00,71.6,61.3,30.11,ENE,59,8.0,14.0,70,0.00,,---,0.00,VWS V14.00,2013-02-04 13:52:00,
2013-02-04 03:57:00,71.5,61.6,30.11,ENE,64,5.0,14.0,71,0.00,,---,0.00,VWS V14.00,2013-02-04 13:57:00,
2013-02-04 04:02:00,71.4,61.9,30.12,ENE,74,4.0,17.0,72,0.00,,---,0.00,VWS V14.00,2013-02-04 14:02:00,
2013-02-04 04:07:00,71.3,61.8,30.12,SE,137,10.0,10.0,72,0.00,,---,0.00,VWS V14.00,2013-02-04 14:07:00,
2013-02-04 04:12:00,71.2,61.7,30.12,NE,47,2.0,10.0,72,0.00,,---,0.00,VWS V14.00,2013-02-04 14:12:00,
2013-02-04 04:17:00,71.3,61.4,30.12,North,11,5.0,11.0,71,0.00,,---,0.00,VWS V14.00,2013-02-04 14:17:00,
2013-02-04 04:22:00,71.3,61.4,30.12,NE,54,4.0,14.0,71,0.00,,---,0.00,VWS V14.00,2013-02-04 14:22:00,
2013-02-04 04:27:00,71.2,61.3,30.12,NE,46,5.0,14.0,71,0.00,,---,0.00,VWS V14.00,2013-02-04 14:27:00,
2013-02-04 04:32:00,71.2,60.5,30.12,ENE,67,11.0,14.0,69,0.00,,---,0.00,VWS V14.00,2013-02-04 14:32:00,
2013-02-04 04:37:00,71.3,60.2,30.12,NE,52,6.0,15.0,68,0.00,,---,0.00,VWS V14.00,2013-02-04 14:37:00,
2013-02-04 04:41:00,71.3,58.9,30.12,NNE,23,13.0,15.0,65,0.00,,---,0.00,VWS V14.00,2013-02-04 14:41:00,
2013-02-04 04:46:00,71.3,58.5,30.12,ENE,68,12.0,18.0,64,0.00,,---,0.00,VWS V14.00,2013-02-04 14:46:00,
2013-02-04 04:51:00,71.4,58.2,30.12,ENE,68,3.0,18.0,63,0.00,,---,0.00,VWS V14.00,2013-02-04 14:51:00,
2013-02-04 04:56:00,71.4,59.0,30.12,NE,48,6.0,18.0,65,0.00,,---,0.00,VWS V14.00,2013-02-04 14:56:00,
2013-02-04 05:01:00,71.3,58.9,30.12,NE,48,3.0,18.0,65,0.00,,---,0.00,VWS V14.00,2013-02-04 15:01:00,
2013-02-04 05:06:00,71.3,58.5,30.12,NNE,22,3.0,8.0,64,0.00,,---,0.00,VWS V14.00,2013-02-04 15:06:00,
2013-02-04 05:11:00,71.2,58.8,30.12,North,9,2.0,8.0,65,0.00,,---,0.00,VWS V14.00,2013-02-04 15:11:00,
2013-02-04 05:16:00,71.2,59.3,30.12,ENE,65,2.0,12.0,66,0.00,,---,0.00,VWS V14.00,2013-02-04 15:16:00,
2013-02-04 05:21:00,71.2,59.3,30.12,ENE,65,4.0,12.0,66,0.00,,---,0.00,VWS V14.00,2013-02-04 15:21:00,
2013-02-04 05:26:00,71.3,58.9,30.12,ESE,108,5.0,14.0,65,0.00,,---,0.00,VWS V14.00,2013-02-04 15:26:00,
2013-02-04 05:31:00,71.3,58.9,30.13,ENE,72,3.0,14.0,65,0.00,,---,0.00,VWS V14.00,2013-02-04 15:31:00,
2013-02-04 05:36:00,71.4,59.0,30.12,NE,44,4.0,13.0,65,0.00,,---,0.00,VWS V14.00,2013-02-04 15:36:00,
2013-02-04 05:41:00,71.3,58.9,30.12,East,80,3.0,13.0,65,0.00,,---,0.00,VWS V14.00,2013-02-04 15:41:00,
2013-02-04 05:46:00,71.2,58.4,30.12,NNW,348,8.0,13.0,64,0.00,,---,0.00,VWS V14.00,2013-02-04 15:46:00,
2013-02-04 05:51:00,71.3,58.9,30.13,ENE,63,4.0,13.0,65,0.00,,---,0.00,VWS V14.00,2013-02-04 15:51:00,
2013-02-04 05:56:00,71.4,59.0,30.13,NE,44,1.0,13.0,65,0.00,,---,0.00,VWS V14.00,2013-02-04 15:56:00,
2013-02-04 06:01:00,71.5,60.0,30.13,ENE,65,7.0,14.0,67,0.00,,---,0.00,VWS V14.00,2013-02-04 16:01:00,
2013-02-04 06:06:00,71.6,59.7,30.13,NNE,30,8.0,10.0,66,0.00,,---,0.00,VWS V14.00,2013-02-04 16:06:00,
2013-02-04 06:11:00,71.7,60.2,30.14,NE,54,4.0,16.0,67,0.00,,---,0.00,VWS V14.00,2013-02-04 16:11:00,
2013-02-04 06:16:00,71.7,60.2,30.14,NE,48,3.0,16.0,67,0.00,,---,0.00,VWS V14.00,2013-02-04 16:16:00,
2013-02-04 06:21:00,71.7,60.6,30.14,NNE,18,2.0,16.0,68,0.00,,---,0.00,VWS V14.00,2013-02-04 16:21:00,
2013-02-04 06:26:00,71.7,60.6,30.14,ENE,71,12.0,18.0,68,0.00,,---,0.00,VWS V14.00,2013-02-04 16:26:00,
2013-02-04 06:31:00,71.7,60.6,30.14,NE,40,9.0,18.0,68,0.00,,---,0.00,VWS V14.00,2013-02-04 16:31:00,
2013-02-04 06:36:00,71.6,60.1,30.14,NNE,27,8.0,13.0,67,0.00,,---,0.00,VWS V14.00,2013-02-04 16:36:00,
2013-02-04 06:41:00,71.6,60.1,30.14,NNE,30,4.0,13.0,67,0.00,,---,0.00,VWS V14.00,2013-02-04 16:41:00,
2013-02-04 06:46:00,71.5,59.6,30.14,ENE,65,8.0,13.0,66,0.00,,---,0.00,VWS V14.00,2013-02-04 16:46:00,
2013-02-04 06:51:00,71.6,60.1,30.14,ENE,65,7.0,17.0,67,0.00,,---,0.00,VWS V14.00,2013-02-04 16:51:00,
2013-02-04 06:56:00,71.6,59.7,30.14,ENE,75,5.0,17.0,66,0.00,,---,0.00,VWS V14.00,2013-02-04 16:56:00,
2013-02-04 07:01:00,71.5,59.6,30.15,NE,50,2.0,17.0,66,0.00,,---,0.00,VWS V14.00,2013-02-04 17:01:00,
2013-02-04 07:06:00,71.4,59.0,30.15,NNW,345,4.0,10.0,65,0.00,,---,0.00,VWS V14.00,2013-02-04 17:06:00,
2013-02-04 07:11:00,71.3,58.9,30.15,North,11,1.0,10.0,65,0.00,,---,0.00,VWS V14.00,2013-02-04 17:11:00,
2013-02-04 07:16:00,71.3,58.9,30.15,NE,49,4.0,10.0,65,0.00,,---,0.00,VWS V14.00,2013-02-04 17:16:00,
2013-02-04 07:21:00,71.5,59.6,30.15,ENE,57,6.0,11.0,66,0.00,,---,0.00,VWS V14.00,2013-02-04 17:21:00,
2013-02-04 07:26:00,71.6,60.1,30.15,ENE,59,6.0,11.0,67,0.00,,---,0.00,VWS V14.00,2013-02-04 17:26:00,
2013-02-04 07:31:00,71.7,60.2,30.15,ENE,64,4.0,20.0,67,0.00,,---,0.00,VWS V14.00,2013-02-04 17:31:00,
2013-02-04 07:36:00,71.8,60.7,30.15,NE,37,3.0,10.0,68,0.00,,---,0.00,VWS V14.00,2013-02-04 17:36:00,
2013-02-04 07:41:00,71.7,60.6,30.15,East,83,4.0,11.0,68,0.00,,---,0.00,VWS V14.00,2013-02-04 17:41:00,
2013-02-04 07:46:00,71.7,60.6,30.16,East,80,3.0,11.0,68,0.00,,---,0.00,VWS V14.00,2013-02-04 17:46:00,
2013-02-04 07:51:00,71.7,60.2,30.16,ENE,61,6.0,11.0,67,0.00,,---,0.00,VWS V14.00,2013-02-04 17:51:00,
2013-02-04 07:56:00,71.8,60.7,30.16,ENE,65,3.0,11.0,68,0.00,,---,0.00,VWS V14.00,2013-02-04 17:56:00,
2013-02-04 08:01:00,71.8,60.7,30.16,ENE,70,11.0,11.0,68,0.00,,---,0.00,VWS V14.00,2013-02-04 18:01:00,
2013-02-04 08:06:00,71.9,60.8,30.16,NE,51,6.0,11.0,68,0.00,,---,0.00,VWS V14.00,2013-02-04 18:06:00,
2013-02-04 08:11:00,71.9,60.8,30.15,ENE,65,2.0,13.0,68,0.00,,---,0.00,VWS V14.00,2013-02-04 18:11:00,
2013-02-04 08:16:00,72.0,61.3,30.15,NE,34,9.0,13.0,69,0.00,,---,0.00,VWS V14.00,2013-02-04 18:16:00,
2013-02-04 08:21:00,72.0,60.5,30.15,ENE,77,3.0,14.0,67,0.00,,---,0.00,VWS V14.00,2013-02-04 18:21:00,
2013-02-04 08:26:00,72.1,61.0,30.16,NW,312,9.0,14.0,68,0.00,,---,0.00,VWS V14.00,2013-02-04 18:26:00,
2013-02-04 08:31:00,72.2,61.1,30.15,NE,44,3.0,14.0,68,0.00,,---,0.00,VWS V14.00,2013-02-04 18:31:00,
2013-02-04 08:36:00,72.2,61.1,30.16,ENE,70,4.0,13.0,68,0.00,,---,0.00,VWS V14.00,2013-02-04 18:36:00,
2013-02-04 08:41:00,72.4,61.7,30.16,NE,40,4.0,13.0,69,0.00,,---,0.00,VWS V14.00,2013-02-04 18:41:00,
2013-02-04 08:46:00,72.6,61.9,30.15,NE,56,7.0,13.0,69,0.00,,---,0.00,VWS V14.00,2013-02-04 18:46:00,
2013-02-04 08:51:00,72.8,61.6,30.15,NE,52,12.0,15.0,68,0.00,,---,0.00,VWS V14.00,2013-02-04 18:51:00,
2013-02-04 08:56:00,72.9,61.7,30.16,ENE,60,7.0,15.0,68,0.00,,---,0.00,VWS V14.00,2013-02-04 18:56:00,
2013-02-04 09:01:00,73.1,62.3,30.16,NE,34,4.0,15.0,69,0.00,,---,0.00,VWS V14.00,2013-02-04 19:01:00,
2013-02-04 09:06:00,73.2,62.4,30.16,NE,43,0.0,13.0,69,0.00,,---,0.00,VWS V14.00,2013-02-04 19:06:00,
2013-02-04 09:11:00,73.1,62.3,30.15,ENE,76,4.0,13.0,69,0.00,,---,0.00,VWS V14.00,2013-02-04 19:11:00,
2013-02-04 09:16:00,73.2,62.8,30.15,NE,50,3.0,13.0,70,0.00,,---,0.00,VWS V14.00,2013-02-04 19:16:00,
2013-02-04 09:21:00,73.5,63.5,30.16,NE,35,5.0,17.0,71,0.00,,---,0.00,VWS V14.00,2013-02-04 19:21:00,
2013-02-04 09:26:00,73.4,63.4,30.16,East,81,7.0,17.0,71,0.00,,---,0.00,VWS V14.00,2013-02-04 19:26:00,
2013-02-04 09:31:00,73.2,63.2,30.16,NNE,19,11.0,18.0,71,0.00,,---,0.00,VWS V14.00,2013-02-04 19:31:00,
2013-02-04 09:36:00,73.3,63.7,30.16,ENE,69,5.0,11.0,72,0.00,,---,0.00,VWS V14.00,2013-02-04 19:36:00,
2013-02-04 09:41:00,73.8,63.8,30.16,ENE,59,6.0,19.0,71,0.00,,---,0.00,VWS V14.00,2013-02-04 19:41:00,
2013-02-04 09:46:00,73.6,63.6,30.16,ENE,62,4.0,19.0,71,0.00,,---,0.00,VWS V14.00,2013-02-04 19:46:00,
2013-02-04 09:51:00,73.6,64.0,30.16,NE,55,10.0,19.0,72,0.00,,---,0.00,VWS V14.00,2013-02-04 19:51:00,
2013-02-04 09:56:00,73.8,63.8,30.17,ENE,69,3.0,19.0,71,0.00,,---,0.00,VWS V14.00,2013-02-04 19:56:00,
2013-02-04 10:01:00,73.6,64.0,30.16,NE,34,5.0,19.0,72,0.00,,---,0.00,VWS V14.00,2013-02-04 20:01:00,
2013-02-04 10:06:00,73.7,63.7,30.17,ENE,58,4.0,18.0,71,0.00,,---,0.00,VWS V14.00,2013-02-04 20:06:00,
2013-02-04 10:11:00,73.6,64.0,30.17,ENE,76,5.0,18.0,72,0.00,,---,0.00,VWS V14.00,2013-02-04 20:11:00,
2013-02-04 10:16:00,73.5,63.9,30.17,ENE,63,10.0,18.0,72,0.00,,---,0.00,VWS V14.00,2013-02-04 20:16:00,
2013-02-04 10:21:00,73.7,63.7,30.16,ENE,77,6.0,18.0,71,0.00,,---,0.00,VWS V14.00,2013-02-04 20:21:00,
2013-02-04 10:26:00,73.7,64.5,30.17,East,82,5.0,18.0,73,0.00,,---,0.00,VWS V14.00,2013-02-04 20:26:00,
2013-02-04 10:31:00,72.9,65.3,30.17,NE,51,11.0,18.0,77,0.00,,---,0.00,VWS V14.00,2013-02-04 20:31:00,
2013-02-04 10:36:00,71.8,64.9,30.17,ESE,113,9.0,23.0,79,0.00,,---,0.00,VWS V14.00,2013-02-04 20:36:00,
2013-02-04 10:41:00,71.2,64.4,30.17,NNE,28,9.0,23.0,79,0.00,,---,0.00,VWS V14.00,2013-02-04 20:41:00,
2013-02-04 10:46:00,71.5,65.0,30.16,NE,55,2.0,23.0,80,0.00,,---,0.00,VWS V14.00,2013-02-04 20:46:00,
2013-02-04 10:51:00,72.0,64.8,30.16,ENE,67,3.0,23.0,78,0.00,,---,0.00,VWS V14.00,2013-02-04 20:51:00,
2013-02-04 10:56:00,72.2,63.1,30.16,ENE,66,4.0,23.0,73,0.00,,---,0.00,VWS V14.00,2013-02-04 20:56:00,
2013-02-04 11:01:00,72.5,63.8,30.16,ENE,63,2.0,23.0,74,0.00,,---,0.00,VWS V14.00,2013-02-04 21:01:00,
2013-02-04 11:06:00,73.1,64.3,30.16,NNE,12,10.0,15.0,74,0.00,,---,0.00,VWS V14.00,2013-02-04 21:06:00,
2013-02-04 11:11:00,73.2,64.4,30.15,NE,55,4.0,18.0,74,0.00,,---,0.00,VWS V14.00,2013-02-04 21:11:00,
2013-02-04 11:16:00,73.5,65.1,30.16,ENE,57,7.0,18.0,75,0.00,,---,0.00,VWS V14.00,2013-02-04 21:16:00,
2013-02-04 11:21:00,73.5,64.3,30.16,ENE,57,5.0,18.0,73,0.00,,---,0.00,VWS V14.00,2013-02-04 21:21:00,
2013-02-04 11:26:00,73.7,64.5,30.15,ENE,63,4.0,18.0,73,0.00,,---,0.00,VWS V14.00,2013-02-04 21:26:00,
2013-02-04 11:31:00,73.9,64.3,30.15,NE,52,2.0,18.0,72,0.00,,---,0.00,VWS V14.00,2013-02-04 21:31:00,
2013-02-04 11:36:00,73.8,64.6,30.14,ENE,61,3.0,14.0,73,0.00,,---,0.00,VWS V14.00,2013-02-04 21:36:00,
2013-02-04 11:41:00,73.9,64.3,30.14,ENE,71,6.0,14.0,72,0.00,,---,0.00,VWS V14.00,2013-02-04 21:41:00,
2013-02-04 11:46:00,73.8,63.8,30.14,NE,52,7.0,15.0,71,0.00,,---,0.00,VWS V14.00,2013-02-04 21:46:00,
2013-02-04 11:51:00,73.7,65.3,30.14,NE,47,5.0,15.0,75,0.00,,---,0.00,VWS V14.00,2013-02-04 21:51:00,
2013-02-04 11:56:00,73.1,65.1,30.14,NNW,340,9.0,15.0,76,0.00,,---,0.00,VWS V14.00,2013-02-04 21:56:00,
2013-02-04 12:01:00,73.2,65.9,30.14,NE,34,6.0,15.0,78,0.00,,---,0.00,VWS V14.00,2013-02-04 22:01:00,
2013-02-04 12:06:00,73.4,66.1,30.14,NNE,23,5.0,11.0,78,0.00,,---,0.00,VWS V14.00,2013-02-04 22:06:00,
2013-02-04 12:11:00,73.4,65.4,30.14,NE,40,6.0,15.0,76,0.00,,---,0.00,VWS V14.00,2013-02-04 22:11:00,
2013-02-04 12:16:00,73.2,64.8,30.14,NNE,33,8.0,15.0,75,0.00,,---,0.00,VWS V14.00,2013-02-04 22:16:00,
2013-02-04 12:21:00,73.8,65.4,30.13,ENE,75,4.0,15.0,75,0.00,,---,0.00,VWS V14.00,2013-02-04 22:21:00,
2013-02-04 12:26:00,74.3,64.7,30.13,NE,54,5.0,15.0,72,0.00,,---,0.00,VWS V14.00,2013-02-04 22:26:00,
2013-02-04 12:31:00,74.6,64.6,30.12,NE,55,4.0,16.0,71,0.00,,---,0.00,VWS V14.00,2013-02-04 22:31:00,
2013-02-04 12:36:00,75.0,66.6,30.13,NNE,13,6.0,10.0,75,0.00,,---,0.00,VWS V14.00,2013-02-04 22:36:00,
2013-02-04 12:41:00,74.9,66.4,30.12,NE,34,3.0,13.0,75,0.00,,---,0.00,VWS V14.00,2013-02-04 22:41:00,
2013-02-04 12:46:00,74.4,66.0,30.12,NNE,13,10.0,16.0,75,0.00,,---,0.00,VWS V14.00,2013-02-04 22:46:00,
2013-02-04 12:51:00,74.2,66.2,30.12,NE,51,3.0,16.0,76,0.00,,---,0.00,VWS V14.00,2013-02-04 22:51:00,
2013-02-04 12:56:00,73.7,65.7,30.13,ENE,67,15.0,18.0,76,0.00,,---,0.00,VWS V14.00,2013-02-04 22:56:00,
2013-02-04 13:01:00,71.7,64.8,30.12,NNE,32,1.0,18.0,79,0.00,,---,0.01,VWS V14.00,2013-02-04 23:01:00,
2013-02-04 13:06:00,71.3,65.2,30.11,NE,56,7.0,15.0,81,0.00,,---,0.01,VWS V14.00,2013-02-04 23:06:00,
2013-02-04 13:11:00,71.5,64.7,30.11,NE,49,5.0,15.0,79,0.00,,---,0.01,VWS V14.00,2013-02-04 23:11:00,
2013-02-04 13:16:00,72.0,64.0,30.11,ENE,60,12.0,15.0,76,0.00,,---,0.01,VWS V14.00,2013-02-04 23:16:00,
2013-02-04 13:21:00,72.3,64.3,30.11,ENE,71,15.0,15.0,76,0.00,,---,0.01,VWS V14.00,2013-02-04 23:21:00,
2013-02-04 13:26:00,72.8,65.2,30.11,ENE,67,4.0,15.0,77,0.00,,---,0.01,VWS V14.00,2013-02-04 23:26:00,
2013-02-04 13:31:00,73.4,65.8,30.11,ENE,75,4.0,15.0,77,0.00,,---,0.01,VWS V14.00,2013-02-04 23:31:00,
2013-02-04 13:36:00,73.5,65.1,30.11,NE,36,5.0,16.0,75,0.00,,---,0.01,VWS V14.00,2013-02-04 23:36:00,
2013-02-04 13:41:00,73.7,64.9,30.10,NE,56,5.0,16.0,74,0.00,,---,0.01,VWS V14.00,2013-02-04 23:41:00,
2013-02-04 13:46:00,74.0,64.4,30.10,ENE,63,7.0,16.0,72,0.00,,---,0.01,VWS V14.00,2013-02-04 23:46:00,
2013-02-04 13:51:00,73.8,64.2,30.09,NE,42,4.0,16.0,72,0.00,,---,0.01,VWS V14.00,2013-02-04 23:51:00,
2013-02-04 13:56:00,73.8,63.8,30.10,NNE,32,7.0,16.0,71,0.00,,---,0.01,VWS V14.00,2013-02-04 23:56:00,
2013-02-04 14:01:00,72.6,63.8,30.10,NE,55,2.0,16.0,74,0.00,,---,0.01,VWS V14.00,2013-02-05 00:01:00,
2013-02-04 14:06:00,72.1,64.9,30.09,ENE,68,5.0,10.0,78,0.00,,---,0.01,VWS V14.00,2013-02-05 00:06:00,
2013-02-04 14:11:00,72.3,64.7,30.09,North,355,4.0,18.0,77,0.00,,---,0.02,VWS V14.00,2013-02-05 00:11:00,
2013-02-04 14:16:00,72.8,64.4,30.09,NE,43,7.0,18.0,75,0.00,,---,0.02,VWS V14.00,2013-02-05 00:16:00,
2013-02-04 14:21:00,73.1,63.9,30.09,NE,55,7.0,18.0,73,0.00,,---,0.02,VWS V14.00,2013-02-05 00:21:00,
2013-02-04 14:26:00,73.3,62.9,30.08,ENE,70,6.0,18.0,70,0.00,,---,0.02,VWS V14.00,2013-02-05 00:26:00,
2013-02-04 14:31:00,73.7,62.9,30.08,ENE,71,3.0,18.0,69,0.00,,---,0.02,VWS V14.00,2013-02-05 00:31:00,
2013-02-04 14:36:00,73.9,62.7,30.08,ENE,68,12.0,13.0,68,0.00,,---,0.02,VWS V14.00,2013-02-05 00:36:00,
2013-02-04 14:41:00,73.9,63.1,30.08,NE,44,5.0,14.0,69,0.00,,---,0.02,VWS V14.00,2013-02-05 00:41:00,
2013-02-04 14:46:00,74.2,63.8,30.08,ENE,77,3.0,19.0,70,0.00,,---,0.02,VWS V14.00,2013-02-05 00:46:00,
2013-02-04 14:51:00,74.2,63.8,30.08,East,92,1.0,19.0,70,0.00,,---,0.02,VWS V14.00,2013-02-05 00:51:00,
2013-02-04 14:56:00,74.0,63.6,30.08,NE,34,5.0,19.0,70,0.00,,---,0.02,VWS V14.00,2013-02-05 00:56:00,
2013-02-04 15:01:00,73.7,63.7,30.08,NE,41,6.0,19.0,71,0.00,,---,0.02,VWS V14.00,2013-02-05 01:01:00,
2013-02-04 15:06:00,73.6,64.4,30.07,NNE,20,7.0,14.0,73,0.00,,---,0.02,VWS V14.00,2013-02-05 01:06:00,
2013-02-04 15:11:00,73.8,63.8,30.07,NE,42,10.0,14.0,71,0.00,,---,0.02,VWS V14.00,2013-02-05 01:11:00,
2013-02-04 15:16:00,73.9,63.9,30.07,North,5,0.0,14.0,71,0.00,,---,0.02,VWS V14.00,2013-02-05 01:16:00,
2013-02-04 15:21:00,74.2,64.2,30.07,ENE,70,6.0,15.0,71,0.00,,---,0.02,VWS V14.00,2013-02-05 01:21:00,
2013-02-04 15:26:00,74.2,64.6,30.07,ENE,70,3.0,15.0,72,0.00,,---,0.02,VWS V14.00,2013-02-05 01:26:00,
2013-02-04 15:31:00,74.4,66.0,30.07,NE,49,3.0,15.0,75,0.00,,---,0.02,VWS V14.00,2013-02-05 01:31:00,
2013-02-04 15:36:00,74.0,64.0,30.07,NNE,16,10.0,16.0,71,0.00,,---,0.02,VWS V14.00,2013-02-05 01:36:00,
2013-02-04 15:41:00,73.6,63.6,30.07,East,90,14.0,17.0,71,0.00,,---,0.02,VWS V14.00,2013-02-05 01:41:00,
2013-02-04 15:46:00,73.5,63.1,30.07,NE,52,6.0,19.0,70,0.00,,---,0.02,VWS V14.00,2013-02-05 01:46:00,
2013-02-04 15:51:00,73.7,63.7,30.07,NE,55,16.0,19.0,71,0.00,,---,0.02,VWS V14.00,2013-02-05 01:51:00,
2013-02-04 15:56:00,73.8,63.8,30.07,NNE,12,5.0,19.0,71,0.00,,---,0.02,VWS V14.00,2013-02-05 01:56:00,
2013-02-04 16:01:00,73.8,64.2,30.07,East,82,10.0,19.0,72,0.00,,---,0.02,VWS V14.00,2013-02-05 02:01:00,
2013-02-04 16:06:00,73.6,63.6,30.07,East,79,3.0,10.0,71,0.00,,---,0.02,VWS V14.00,2013-02-05 02:06:00,
2013-02-04 16:11:00,73.4,63.8,30.07,NE,56,4.0,12.0,72,0.00,,---,0.02,VWS V14.00,2013-02-05 02:11:00,
2013-02-04 16:16:00,73.2,62.8,30.07,NE,51,12.0,14.0,70,0.00,,---,0.02,VWS V14.00,2013-02-05 02:16:00,
2013-02-04 16:21:00,73.1,63.2,30.07,NE,39,2.0,14.0,71,0.00,,---,0.02,VWS V14.00,2013-02-05 02:21:00,
2013-02-04 16:26:00,72.9,63.3,30.07,NE,54,11.0,17.0,72,0.00,,---,0.02,VWS V14.00,2013-02-05 02:26:00,
2013-02-04 16:31:00,72.9,63.3,30.07,ENE,71,2.0,17.0,72,0.00,,---,0.02,VWS V14.00,2013-02-05 02:31:00,
2013-02-04 16:36:00,73.0,63.5,30.07,NE,42,7.0,17.0,72,0.00,,---,0.02,VWS V14.00,2013-02-05 02:36:00,
2013-02-04 16:41:00,72.8,62.9,30.07,NE,55,7.0,17.0,71,0.00,,---,0.02,VWS V14.00,2013-02-05 02:41:00,
2013-02-04 16:46:00,72.6,61.9,30.07,North,355,5.0,17.0,69,0.00,,---,0.02,VWS V14.00,2013-02-05 02:46:00,
2013-02-04 16:51:00,72.6,61.9,30.07,NNE,22,5.0,17.0,69,0.00,,---,0.02,VWS V14.00,2013-02-05 02:51:00,
2013-02-04 16:56:00,72.7,62.0,30.07,NNE,27,4.0,17.0,69,0.00,,---,0.02,VWS V14.00,2013-02-05 02:56:00,
2013-02-04 17:00:00,72.8,62.5,30.07,NE,45,5.0,17.0,70,0.00,,---,0.02,VWS V14.00,2013-02-05 03:00:00,
2013-02-04 17:10:00,72.8,62.5,30.07,NE,45,5.0,17.0,70,0.00,,---,0.02,VWS V14.00,2013-02-05 03:10:00,
2013-02-04 17:15:00,72.6,61.4,30.08,ENE,61,6.0,11.0,68,0.00,,---,0.02,VWS V14.00,2013-02-05 03:15:00,
2013-02-04 17:20:00,72.5,61.3,30.07,ENE,64,1.0,11.0,68,0.00,,---,0.02,VWS V14.00,2013-02-05 03:20:00,
2013-02-04 17:25:00,72.5,61.3,30.08,ENE,69,1.0,12.0,68,0.00,,---,0.02,VWS V14.00,2013-02-05 03:25:00,
2013-02-04 17:30:00,72.4,61.2,30.08,ENE,67,4.0,12.0,68,0.00,,---,0.02,VWS V14.00,2013-02-05 03:30:00,
2013-02-04 17:35:00,72.3,60.7,30.08,NNE,19,2.0,11.0,67,0.00,,---,0.02,VWS V14.00,2013-02-05 03:35:00,
2013-02-04 17:40:00,72.3,60.7,30.08,ENE,74,2.0,11.0,67,0.00,,---,0.02,VWS V14.00,2013-02-05 03:40:00,
2013-02-04 17:45:00,72.3,61.2,30.08,ENE,57,3.0,13.0,68,0.00,,---,0.02,VWS V14.00,2013-02-05 03:45:00,
2013-02-04 17:50:00,72.3,61.6,30.08,East,82,0.0,13.0,69,0.00,,---,0.02,VWS V14.00,2013-02-05 03:50:00,
2013-02-04 17:55:00,72.3,61.6,30.08,NE,44,4.0,14.0,69,0.00,,---,0.02,VWS V14.00,2013-02-05 03:55:00,
2013-02-04 18:00:00,72.2,61.5,30.08,East,96,4.0,14.0,69,0.00,,---,0.02,VWS V14.00,2013-02-05 04:00:00,
2013-02-04 18:05:00,72.2,61.5,30.08,East,82,3.0,10.0,69,0.00,,---,0.02,VWS V14.00,2013-02-05 04:05:00,
2013-02-04 18:10:00,72.1,61.4,30.08,NE,56,7.0,14.0,69,0.00,,---,0.02,VWS V14.00,2013-02-05 04:10:00,
2013-02-04 18:15:00,72.1,61.4,30.08,NE,51,5.0,17.0,69,0.00,,---,0.02,VWS V14.00,2013-02-05 04:15:00,
2013-02-04 18:20:00,72.1,61.8,30.08,NW,316,1.0,17.0,70,0.00,,---,0.02,VWS V14.00,2013-02-05 04:20:00,
2013-02-04 18:25:00,72.1,61.4,30.08,ENE,73,3.0,17.0,69,0.00,,---,0.02,VWS V14.00,2013-02-05 04:25:00,
2013-02-04 18:30:00,72.2,62.7,30.08,East,94,6.0,17.0,72,0.00,,---,0.02,VWS V14.00,2013-02-05 04:30:00,
2013-02-04 18:35:00,72.1,63.4,30.08,ESE,116,4.0,7.0,74,0.00,,---,0.02,VWS V14.00,2013-02-05 04:35:00,
2013-02-04 18:40:00,72.0,62.9,30.08,ESE,105,6.0,13.0,73,0.00,,---,0.02,VWS V14.00,2013-02-05 04:40:00,
2013-02-04 18:45:00,71.9,62.8,30.08,SE,126,7.0,14.0,73,0.00,,---,0.02,VWS V14.00,2013-02-05 04:45:00,
2013-02-04 18:50:00,71.9,62.8,30.09,NNE,30,4.0,14.0,73,0.00,,---,0.02,VWS V14.00,2013-02-05 04:50:00,
2013-02-04 18:55:00,71.9,62.8,30.09,East,83,0.0,14.0,73,0.00,,---,0.02,VWS V14.00,2013-02-05 04:55:00,
2013-02-04 19:00:00,71.9,63.2,30.09,NE,44,5.0,14.0,74,0.00,,---,0.02,VWS V14.00,2013-02-05 05:00:00,
2013-02-04 19:05:00,71.9,63.2,30.09,NE,40,7.0,17.0,74,0.00,,---,0.02,VWS V14.00,2013-02-05 05:05:00,
2013-02-04 19:10:00,71.9,63.2,30.09,ENE,69,5.0,17.0,74,0.00,,---,0.02,VWS V14.00,2013-02-05 05:10:00,
2013-02-04 19:15:00,71.9,63.5,30.09,ENE,68,3.0,17.0,75,0.00,,---,0.02,VWS V14.00,2013-02-05 05:15:00,
2013-02-04 19:20:00,71.7,62.6,30.09,ENE,57,5.0,17.0,73,0.00,,---,0.02,VWS V14.00,2013-02-05 05:20:00,
2013-02-04 19:25:00,71.6,62.5,30.09,NE,53,3.0,17.0,73,0.00,,---,0.02,VWS V14.00,2013-02-05 05:25:00,
2013-02-04 19:30:00,71.8,63.1,30.09,SE,128,5.0,17.0,74,0.00,,---,0.02,VWS V14.00,2013-02-05 05:30:00,
2013-02-04 19:35:00,71.9,63.5,30.09,ENE,57,3.0,18.0,75,0.00,,---,0.02,VWS V14.00,2013-02-05 05:35:00,
2013-02-04 19:40:00,71.8,63.1,30.09,NE,49,5.0,18.0,74,0.00,,---,0.02,VWS V14.00,2013-02-05 05:40:00,
2013-02-04 19:45:00,71.9,63.2,30.09,NE,40,8.0,18.0,74,0.00,,---,0.02,VWS V14.00,2013-02-05 05:45:00,
2013-02-04 19:50:00,71.7,62.6,30.10,ENE,69,3.0,18.0,73,0.00,,---,0.02,VWS V14.00,2013-02-05 05:50:00,
2013-02-04 19:55:00,71.7,63.0,30.10,NE,41,6.0,18.0,74,0.00,,---,0.02,VWS V14.00,2013-02-05 05:55:00,
2013-02-04 20:00:00,71.7,62.6,30.10,North,9,3.0,19.0,73,0.00,,---,0.02,VWS V14.00,2013-02-05 06:00:00,
2013-02-04 20:05:00,71.7,62.6,30.11,NE,38,4.0,13.0,73,0.00,,---,0.02,VWS V14.00,2013-02-05 06:05:00,
2013-02-04 20:10:00,71.8,62.7,30.11,NE,49,5.0,13.0,73,0.00,,---,0.02,VWS V14.00,2013-02-05 06:10:00,
2013-02-04 20:15:00,71.8,63.1,30.10,NNE,14,4.0,15.0,74,0.00,,---,0.02,VWS V14.00,2013-02-05 06:15:00,
2013-02-04 20:20:00,72.1,64.5,30.11,NE,53,8.0,15.0,77,0.00,,---,0.02,VWS V14.00,2013-02-05 06:20:00,
2013-02-04 20:25:00,71.8,64.2,30.11,ENE,68,5.0,15.0,77,0.00,,---,0.02,VWS V14.00,2013-02-05 06:25:00,
2013-02-04 20:30:00,71.3,63.7,30.12,NE,36,9.0,15.0,77,0.00,,---,0.02,VWS V14.00,2013-02-05 06:30:00,
2013-02-04 20:35:00,71.0,63.8,30.12,NE,42,8.0,14.0,78,0.00,,---,0.02,VWS V14.00,2013-02-05 06:35:00,
2013-02-04 20:40:00,70.7,63.5,30.12,NE,42,3.0,14.0,78,0.00,,---,0.02,VWS V14.00,2013-02-05 06:40:00,
2013-02-04 20:45:00,70.6,63.4,30.11,NE,51,4.0,18.0,78,0.00,,---,0.02,VWS V14.00,2013-02-05 06:45:00,
2013-02-04 20:50:00,70.6,63.4,30.11,NNE,27,6.0,18.0,78,0.00,,---,0.02,VWS V14.00,2013-02-05 06:50:00,
2013-02-04 20:55:00,70.6,63.0,30.11,ENE,66,5.0,18.0,77,0.00,,---,0.02,VWS V14.00,2013-02-05 06:55:00,
2013-02-04 21:00:00,70.8,62.9,30.12,NE,35,10.0,18.0,76,0.00,,---,0.02,VWS V14.00,2013-02-05 07:00:00,
2013-02-04 21:05:00,71.0,63.1,30.11,ENE,59,2.0,5.0,76,0.00,,---,0.02,VWS V14.00,2013-02-05 07:05:00,
2013-02-04 21:10:00,70.9,62.6,30.11,ENE,71,3.0,11.0,75,0.00,,---,0.02,VWS V14.00,2013-02-05 07:10:00,
2013-02-04 21:15:00,71.0,62.7,30.11,ENE,59,4.0,13.0,75,0.00,,---,0.02,VWS V14.00,2013-02-05 07:15:00,
2013-02-04 21:20:00,71.1,63.2,30.11,East,100,2.0,13.0,76,0.00,,---,0.02,VWS V14.00,2013-02-05 07:20:00,
2013-02-04 21:25:00,71.2,63.3,30.11,NNE,25,3.0,13.0,76,0.00,,---,0.02,VWS V14.00,2013-02-05 07:25:00,
2013-02-04 21:30:00,71.1,62.8,30.12,NE,45,1.0,13.0,75,0.00,,---,0.02,VWS V14.00,2013-02-05 07:30:00,
2013-02-04 21:35:00,71.1,62.8,30.11,NNE,30,2.0,11.0,75,0.00,,---,0.02,VWS V14.00,2013-02-05 07:35:00,
2013-02-04 21:40:00,71.2,62.9,30.12,NE,52,1.0,11.0,75,0.00,,---,0.02,VWS V14.00,2013-02-05 07:40:00,
2013-02-04 21:45:00,71.2,63.3,30.12,ENE,60,4.0,11.0,76,0.00,,---,0.02,VWS V14.00,2013-02-05 07:45:00,
2013-02-04 21:50:00,71.2,63.6,30.11,ENE,69,6.0,12.0,77,0.00,,---,0.02,VWS V14.00,2013-02-05 07:50:00,
2013-02-04 21:55:00,71.1,63.9,30.12,ENE,71,4.0,17.0,78,0.00,,---,0.02,VWS V14.00,2013-02-05 07:55:00,
2013-02-04 22:00:00,71.0,63.4,30.12,NE,46,2.0,17.0,77,0.00,,---,0.02,VWS V14.00,2013-02-05 08:00:00,
2013-02-04 22:05:00,70.8,63.2,30.12,SE,144,4.0,7.0,77,0.00,,---,0.02,VWS V14.00,2013-02-05 08:05:00,
2013-02-04 22:10:00,70.7,62.8,30.12,NE,35,12.0,12.0,76,0.00,,---,0.02,VWS V14.00,2013-02-05 08:10:00,
2013-02-04 22:15:00,70.9,63.0,30.12,ENE,62,1.0,13.0,76,0.00,,---,0.02,VWS V14.00,2013-02-05 08:15:00,
2013-02-04 22:20:00,71.1,63.5,30.11,NE,39,2.0,13.0,77,0.00,,---,0.02,VWS V14.00,2013-02-05 08:20:00,
2013-02-04 22:25:00,71.1,63.5,30.12,NE,39,5.0,17.0,77,0.00,,---,0.02,VWS V14.00,2013-02-05 08:25:00,
2013-02-04 22:30:00,71.1,63.5,30.12,NE,55,2.0,18.0,77,0.00,,---,0.02,VWS V14.00,2013-02-05 08:30:00,
2013-02-04 22:35:00,71.1,63.5,30.12,ENE,76,3.0,13.0,77,0.00,,---,0.02,VWS V14.00,2013-02-05 08:35:00,
2013-02-04 22:40:00,71.0,63.4,30.12,NE,47,3.0,13.0,77,0.00,,---,0.02,VWS V14.00,2013-02-05 08:40:00,
2013-02-04 22:45:00,71.0,63.4,30.12,NNE,17,2.0,14.0,77,0.00,,---,0.02,VWS V14.00,2013-02-05 08:45:00,
2013-02-04 22:50:00,71.1,63.2,30.12,ENE,63,5.0,14.0,76,0.00,,---,0.02,VWS V14.00,2013-02-05 08:50:00,
2013-02-04 22:55:00,71.1,62.8,30.12,North,5,3.0,14.0,75,0.00,,---,0.02,VWS V14.00,2013-02-05 08:55:00,
2013-02-04 23:00:00,71.1,62.4,30.12,NE,54,4.0,14.0,74,0.00,,---,0.02,VWS V14.00,2013-02-05 09:00:00,
2013-02-04 23:05:00,71.1,62.4,30.12,NNW,345,6.0,13.0,74,0.00,,---,0.02,VWS V14.00,2013-02-05 09:05:00,
2013-02-04 23:10:00,71.2,62.9,30.12,NE,51,2.0,13.0,75,0.00,,---,0.02,VWS V14.00,2013-02-05 09:10:00,
2013-02-04 23:15:00,71.2,63.3,30.12,ENE,70,2.0,17.0,76,0.00,,---,0.02,VWS V14.00,2013-02-05 09:15:00,
2013-02-04 23:20:00,71.3,63.3,30.11,ENE,67,7.0,17.0,76,0.00,,---,0.02,VWS V14.00,2013-02-05 09:20:00,
2013-02-04 23:25:00,71.4,63.5,30.11,NE,55,3.0,17.0,76,0.00,,---,0.02,VWS V14.00,2013-02-05 09:25:00,
2013-02-04 23:30:00,71.3,63.0,30.11,ENE,60,5.0,17.0,75,0.00,,---,0.02,VWS V14.00,2013-02-05 09:30:00,
2013-02-04 23:35:00,71.4,63.1,30.11,ENE,78,4.0,8.0,75,0.00,,---,0.02,VWS V14.00,2013-02-05 09:35:00,
2013-02-04 23:40:00,71.5,62.8,30.11,SE,142,0.0,8.0,74,0.00,,---,0.02,VWS V14.00,2013-02-05 09:40:00,
2013-02-04 23:45:00,71.6,62.9,30.11,South,169,4.0,16.0,74,0.00,,---,0.02,VWS V14.00,2013-02-05 09:45:00,
2013-02-04 23:50:00,71.7,63.0,30.11,East,81,12.0,16.0,74,0.00,,---,0.02,VWS V14.00,2013-02-05 09:50:00,
2013-02-04 23:55:00,71.7,63.0,30.11,ENE,61,1.0,16.0,74,0.00,,---,0.02,VWS V14.00,2013-02-05 09:55:00,